Flag for U.S.A. Weather past 2 weeks in Irvine, California, U.S.A.

Now
78 °F

Scattered clouds.


Feels Like: 79 °F
Forecast: 62 / 81 °F
Wind: 3 mph from North

Location: John Wayne Airport-Orange County Airport

Current Time: Oct 21, 2014 at 2:56:56 PM

Latest Report: Oct 21, 2014 at 1:53 PM


Visibility: 10 mi

Pressure: 29.85 "Hg

Humidity: 52%

Dew point: 59 °F

Location of IrvineLocation

Historic Weather in Irvine — Graph

°F

Irvine temperature yesterday

Maximum temperature yesterday: 76 °F (at 1:53 PM)
Minimum temperature yesterday: 68 °F (at 11:53 PM)
Average temperature yesterday: 71 °F

Past Weeks' High & Low Weather Summary

 TemperatureHumidityPressure
High93 °F (Oct 7, 12:53 PM)90% (Oct 7, 3:53 AM)30.01 "Hg (Oct 7, 3:53 AM)
Low64 °F (Oct 19, 4:53 AM)15% (Oct 6, 12:53 PM)29.80 "Hg (Oct 8, 4:53 PM)
Average73 °F65%29.91 "Hg
* Reported Oct 6 12:53 PM — Oct 21 12:53 PM, Irvine, Weather by CustomWeather, © 2014

Note: Actual official high and low records may vary slightly from our data, if they occured in-between our weather recording intervals... More about our weather records

Advertising

Irvine weather history for previous 24 hours

 ConditionsComfort  
Time TempWeatherWind HumidityBarometerVisibility
12:53 PM
Oct 21
77 °FScattered clouds.3 mph54%29.88 "Hg10 mi
11:53 AM74 °FPassing clouds.5 mph60%29.90 "Hg10 mi
10:53 AM72 °FScattered clouds.No wind64%29.91 "Hg10 mi
9:53 AM70 °FOvercast.No wind68%29.92 "Hg10 mi
8:53 AM70 °FOvercast.No wind68%29.92 "Hg10 mi
7:53 AM68 °FPassing clouds.No wind73%29.90 "Hg10 mi
6:53 AM67 °FPassing clouds.No wind76%29.89 "Hg10 mi
5:53 AM66 °FOvercast.5 mph78%29.89 "Hg10 mi
4:53 AM65 °FOvercast.3 mph81%29.89 "Hg9 mi
3:53 AM66 °FClear.No wind78%29.88 "Hg10 mi
2:53 AM66 °FClear.5 mph78%29.89 "Hg10 mi
1:53 AM67 °FClear.3 mph79%29.90 "Hg10 mi
12:53 AM67 °FClear.No wind79%29.90 "Hg10 mi
11:53 PM
Oct 20
68 °FClear.No wind76%29.90 "Hg10 mi
10:53 PM69 °FClear.No wind76%29.90 "Hg10 mi
9:53 PM69 °FClear.No wind76%29.90 "Hg10 mi
8:53 PM70 °FPassing clouds.No wind73%29.90 "Hg10 mi
7:53 PM70 °FPassing clouds.No wind73%29.89 "Hg10 mi
6:53 PM71 °FScattered clouds.6 mph71%29.88 "Hg10 mi
5:53 PM72 °FScattered clouds.6 mph68%29.85 "Hg10 mi
4:53 PM74 °FScattered clouds.6 mph64%29.86 "Hg10 mi
3:53 PM75 °FScattered clouds.8 mph58%29.87 "Hg10 mi
2:53 PM76 °FScattered clouds.8 mph56%29.87 "Hg10 mi
Weather by CustomWeather, © 2014

See weather overviewHow to use our weather pages